Regional Weather Roundup
Issued by NWS

Home | Current Version | Previous Version | Text Only | Print | Product List | Glossary Off
Versions: 1 2 3 4 5 6 7 8 9 10 11 12 13 14 15 16 17 18 19 20 21 22 23 24 25 26 27 28 29

000
ASUS45 KBOI 031310
RWRID

IDAHO REGIONAL WEATHER ROUNDUP
NATIONAL WEATHER SERVICE BOISE ID
700 AM MDT TUE MAY 03 2016

NOTE: "FAIR" INDICATES FEW OR NO CLOUDS BELOW 12000 FEET
WITH NO SIGNIFICANT WEATHER AND/OR OBSTRUCTIONS TO VISIBILITY

IDZ012-014-031400-
SOUTHWEST IDAHO


CITY           SKY/WX    TMP DP  RH WIND       PRES   REMARKS
BOISE          FAIR      53  31  42 SE8       30.12R
CALDWELL       FAIR      44  34  67 NE6       30.14R
MOUNTAIN HOME  FAIR      42  35  75 SE8       30.14R
$$

IDZ016-017-031400-
SOUTHCENTRAL IDAHO


CITY           SKY/WX    TMP DP  RH WIND       PRES   REMARKS
BURLEY         FAIR      38  36  92 SW3       30.20R
JEROME         FAIR      43  35  73 NE17      30.19R
TWIN FALLS     FAIR      41  32  70 SE6       30.19R
$$

IDZ019>023-031400-
SOUTHEAST IDAHO


CITY           SKY/WX    TMP DP  RH WIND       PRES   REMARKS
IDAHO FALLS    FAIR      35  26  69 N6        30.25R WCI  30
POCATELLO      FAIR      35  30  82 CALM      30.24R
REXBURG        FAIR      34  27  75 N3        30.25R
$$

IDZ006-010-011-018-031-032-031400-
CENTRAL IDAHO MOUNTAINS


CITY           SKY/WX    TMP DP  RH WIND       PRES   REMARKS
MCCALL         FAIR      35  33  92 CALM      30.20S
HAILEY         CLEAR     37  28  70 NW12      30.27R WCI  30
STANLEY          N/A     26  22  84 S3        30.31R
SALMON         FAIR      36  27  69 CALM      30.23R
CHALLIS        FAIR      36  24  62 NW3       30.25R
$$

IDZ002-004-006-007-026-031400-
NORTHERN IDAHO


CITY           SKY/WX    TMP DP  RH WIND       PRES   REMARKS
LEWISTON       FAIR      53  43  68 VRB3      30.08R
LOWELL           N/A     45  42  89 CALM      30.19R
COEUR D`ALENE  FAIR      48  41  76 E8        30.08R
MULLAN PASS    FAIR      53  29  39 CALM      30.21S
$$




USA.gov is the U.S. government's official web portal to all federal, state and local government web resources and services.